Location: Archemont
(49.1579°N, 1.7598°E)
Time: 15:26:54
(UTC+00:00)

Cosmos 1825 - Pass Details

Date: 03 February 2023
Orbit: 480 x 487 km, 82.5° (Epoch: 29 March)

Event Time Altitude Azimuth Distance (km) Brightness Sun altitude
Rises 18:14:32 0° 181° (S) 2,569 5.9 -13.6°
Reaches altitude 10° 18:16:38 10° 179° (S) 1,694 4.9 -13.9°
Maximum altitude 18:20:19 66° 97° (E) 550 2.0 -14.5°
Drops below altitude 10° 18:24:02 10° 15° (NNE) 1,713 4.6 -15.1°
Enters shadow 18:26:05 - 13° (NNE) 2,567 5.5 -15.5°
